| time (UTC) | temp F | wind direction | speed MPH | gust MPH | rain 1hr in | rain 24hr in | rain mn in | humidity % | barometer mb |
| 20260504081916 | 63 | 170 | 1.0 | 5.0 | 0.00 | 0.00 | 0.00 | 76 | 1015.0 |
| 20260504081414 | 63 | 0.0 | 5.0 | 0.00 | 0.00 | 0.00 | 75 | 1015.1 | |
| 20260504080911 | 63 | 192 | 1.0 | 7.0 | 0.00 | 0.00 | 0.00 | 75 | 1015.3 |
| 20260504080408 | 63 | 200 | 1.0 | 5.0 | 0.00 | 0.00 | 0.00 | 75 | 1015.2 |
| 20260504070338 | 63 | 195 | 1.0 | 5.0 | 0.00 | 0.00 | 0.00 | 73 | 1016.3 |
| 20260504050740 | 65 | 190 | 1.0 | 6.0 | 0.00 | 0.00 | 0.00 | 65 | 1017.4 |
| 20260504050238 | 65 | 188 | 1.0 | 6.0 | 0.00 | 0.00 | 0.00 | 65 | 1017.4 |
| 20260504045735 | 65 | 0.0 | 5.0 | 0.00 | 0.00 | 0.00 | 65 | 1017.3 | |
| 20260504045231 | 65 | 198 | 1.0 | 5.0 | 0.00 | 0.00 | 0.00 | 64 | 1017.3 |
| 20260504044730 | 65 | 0.0 | 5.0 | 0.00 | 0.00 | 0.00 | 64 | 1017.3 | |
| 20260504044227 | 65 | 0.0 | 7.0 | 0.00 | 0.00 | 0.00 | 64 | 1017.4 | |
| 20260504043725 | 65 | 198 | 2.0 | 7.0 | 0.00 | 0.00 | 0.00 | 65 | 1017.5 |
| 20260504043221 | 64 | 185 | 1.0 | 4.0 | 0.00 | 0.00 | 0.00 | 64 | 1017.6 |
| 20260504042719 | 64 | 0.0 | 5.0 | 0.00 | 0.00 | 0.00 | 65 | 1017.6 | |
| 20260504042217 | 63 | 0.0 | 5.0 | 0.00 | 0.00 | 0.00 | 67 | 1017.5 | |
| 20260504041715 | 62 | 0.0 | 0.0 | 0.00 | 0.00 | 0.00 | 68 | 1017.5 | |
| 20260504041211 | 62 | 0.0 | 0.0 | 0.00 | 0.00 | 0.00 | 69 | 1017.6 | |
| 20260504040709 | 61 | 0.0 | 0.0 | 0.00 | 0.00 | 0.00 | 68 | 1017.6 | |
| 20260504040207 | 61 | 0.0 | 0.0 | 0.00 | 0.00 | 0.00 | 67 | 1017.5 | |
| 20260504035704 | 62 | 0.0 | 0.0 | 0.00 | 0.00 | 0.00 | 66 | 1017.6 | |
| 20260504035201 | 62 | 0.0 | 0.0 | 0.00 | 0.00 | 0.00 | 67 | 1017.7 | |
| 20260504034659 | 62 | 0.0 | 0.0 | 0.00 | 0.00 | 0.00 | 67 | 1017.8 | |
| 20260504034155 | 62 | 0.0 | 0.0 | 0.00 | 0.00 | 0.00 | 65 | 1017.6 | |
| 20260504033654 | 63 | 0.0 | 0.0 | 0.00 | 0.00 | 0.00 | 65 | 1017.7 | |
| 20260504033151 | 63 | 0.0 | 0.0 | 0.00 | 0.00 | 0.00 | 66 | 1017.7 | |
| 20260504032649 | 63 | 0.0 | 0.0 | 0.00 | 0.00 | 0.00 | 64 | 1017.6 | |
| 20260504032145 | 63 | 0.0 | 0.0 | 0.00 | 0.00 | 0.00 | 62 | 1017.5 | |
| 20260504031644 | 64 | 0.0 | 0.0 | 0.00 | 0.00 | 0.00 | 62 | 1017.6 | |
| 20260504031141 | 64 | 0.0 | 0.0 | 0.00 | 0.00 | 0.00 | 61 | 1017.7 | |
| 20260504030639 | 64 | 0.0 | 0.0 | 0.00 | 0.00 | 0.00 | 60 | 1017.7 | |
| 20260504030135 | 64 | 0.0 | 0.0 | 0.00 | 0.00 | 0.00 | 61 | 1017.6 | |
| 20260504025634 | 64 | 0.0 | 0.0 | 0.00 | 0.00 | 0.00 | 60 | 1017.7 | |
| 20260504025131 | 65 | 0.0 | 0.0 | 0.00 | 0.00 | 0.00 | 60 | 1017.6 | |
| 20260504024629 | 65 | 0.0 | 0.0 | 0.00 | 0.00 | 0.00 | 61 | 1017.5 | |
| 20260504024125 | 65 | 0.0 | 0.0 | 0.00 | 0.00 | 0.00 | 60 | 1017.7 | |
| 20260504023624 | 65 | 0.0 | 0.0 | 0.00 | 0.00 | 0.00 | 58 | 1017.7 | |
| 20260504023121 | 65 | 0.0 | 0.0 | 0.00 | 0.00 | 0.00 | 58 | 1017.6 | |
| 20260504022619 | 65 | 0.0 | 0.0 | 0.00 | 0.00 | 0.00 | 58 | 1017.5 | |
| 20260504022115 | 66 | 0.0 | 0.0 | 0.00 | 0.00 | 0.00 | 58 | 1017.4 | |
| 20260504021613 | 66 | 0.0 | 0.0 | 0.00 | 0.00 | 0.00 | 57 | 1017.5 | |
| 20260504021111 | 66 | 0.0 | 0.0 | 0.00 | 0.00 | 0.00 | 56 | 1017.5 | |
| 20260504020608 | 66 | 0.0 | 0.0 | 0.00 | 0.00 | 0.00 | 55 | 1017.5 | |
| 20260504020105 | 67 | 0.0 | 0.0 | 0.00 | 0.00 | 0.00 | 56 | 1017.5 | |
| 20260504015603 | 67 | 0.0 | 0.0 | 0.00 | 0.00 | 0.00 | 55 | 1017.3 | |
| 20260504015101 | 68 | 0.0 | 0.0 | 0.00 | 0.00 | 0.00 | 54 | 1017.2 | |
| 20260504014558 | 68 | 0.0 | 0.0 | 0.00 | 0.00 | 0.00 | 54 | 1017.2 | |
| 20260504014055 | 68 | 0.0 | 0.0 | 0.00 | 0.00 | 0.00 | 53 | 1017.1 | |
| 20260504013553 | 69 | 0.0 | 0.0 | 0.00 | 0.00 | 0.00 | 52 | 1017.0 | |
| 20260504013051 | 69 | 0.0 | 0.0 | 0.00 | 0.00 | 0.00 | 52 | 1017.0 | |
| 20260504012548 | 70 | 0.0 | 0.0 | 0.00 | 0.00 | 0.00 | 51 | 1016.9 | |
| 20260504012045 | 70 | 0.0 | 0.0 | 0.00 | 0.00 | 0.00 | 51 | 1016.9 | |
| 20260504011543 | 71 | 0.0 | 0.0 | 0.00 | 0.00 | 0.00 | 49 | 1017.0 | |
| 20260504011039 | 71 | 0.0 | 0.0 | 0.00 | 0.00 | 0.00 | 49 | 1017.1 | |
| 20260504010538 | 71 | 0.0 | 0.0 | 0.00 | 0.00 | 0.00 | 48 | 1017.1 | |
| 20260504010035 | 72 | 0.0 | 0.0 | 0.00 | 0.00 | 0.00 | 49 | 1017.0 | |
| 20260504005533 | 72 | 0.0 | 3.0 | 0.00 | 0.00 | 0.00 | 47 | 1016.9 | |
| 20260504005029 | 72 | 0.0 | 3.0 | 0.00 | 0.00 | 0.00 | 47 | 1017.0 | |
| 20260504004528 | 72 | 0.0 | 2.0 | 0.00 | 0.00 | 0.00 | 46 | 1017.0 | |
| 20260504004025 | 73 | 0.0 | 3.0 | 0.00 | 0.00 | 0.00 | 46 | 1017.0 | |
| 20260504003523 | 73 | 0.0 | 3.0 | 0.00 | 0.00 | 0.00 | 45 | 1017.0 | |
| 20260504003019 | 73 | 0.0 | 5.0 | 0.00 | 0.00 | 0.00 | 45 | 1017.0 | |
| 20260504002518 | 73 | 186 | 1.0 | 5.0 | 0.00 | 0.00 | 0.00 | 44 | 1017.2 |
| 20260504002015 | 74 | 0.0 | 4.0 | 0.00 | 0.00 | 0.00 | 45 | 1017.0 | |
| 20260504001513 | 74 | 0.0 | 3.0 | 0.00 | 0.00 | 0.00 | 44 | 1017.1 | |
| 20260504001009 | 74 | 0.0 | 3.0 | 0.00 | 0.00 | 0.00 | 44 | 1017.2 | |
| 20260504000507 | 74 | 1.0 | 3.0 | 0.00 | 0.00 | 0.00 | 43 | 1017.3 | |
| 20260504000005 | 74 | 0.0 | 4.0 | 0.00 | 0.00 | 0.00 | 43 | 1017.4 | |
| 20260503235502 | 74 | 0.0 | 4.0 | 0.00 | 0.00 | 0.00 | 42 | 1017.5 | |
| 20260503234959 | 74 | 0.0 | 3.0 | 0.00 | 0.00 | 0.00 | 42 | 1017.5 | |
| 20260503234457 | 75 | 0.0 | 3.0 | 0.00 | 0.00 | 0.00 | 42 | 1017.4 | |
| 20260503233955 | 75 | 0.0 | 2.0 | 0.00 | 0.00 | 0.00 | 41 | 1017.5 | |
| 20260503233452 | 75 | 0.0 | 4.0 | 0.00 | 0.00 | 0.00 | 40 | 1017.6 | |
| 20260503232949 | 75 | 0.0 | 3.0 | 0.00 | 0.00 | 0.00 | 41 | 1017.7 | |
| 20260503232447 | 75 | 0.0 | 4.0 | 0.00 | 0.00 | 0.00 | 40 | 1017.7 | |
| 20260503231945 | 75 | 0.0 | 4.0 | 0.00 | 0.00 | 0.00 | 40 | 1017.7 | |
| 20260503231444 | 76 | 0.0 | 6.0 | 0.00 | 0.00 | 0.00 | 40 | 1017.6 | |
| 20260503230939 | 77 | 202 | 2.0 | 6.0 | 0.00 | 0.00 | 0.00 | 39 | 1017.5 |
| 20260503230437 | 77 | 161 | 1.0 | 5.0 | 0.00 | 0.00 | 0.00 | 39 | 1017.4 |
| 20260503225935 | 77 | 161 | 1.0 | 7.0 | 0.00 | 0.00 | 0.00 | 40 | 1017.5 |
| 20260503225432 | 77 | 147 | 2.0 | 8.0 | 0.00 | 0.00 | 0.00 | 40 | 1017.6 |
| 20260503224929 | 77 | 0.0 | 7.0 | 0.00 | 0.00 | 0.00 | 39 | 1017.6 | |
| 20260503224427 | 77 | 202 | 2.0 | 7.0 | 0.00 | 0.00 | 0.00 | 38 | 1017.7 |
| 20260503223925 | 77 | 202 | 2.0 | 5.0 | 0.00 | 0.00 | 0.00 | 37 | 1017.8 |
| 20260503223422 | 77 | 0.0 | 7.0 | 0.00 | 0.00 | 0.00 | 38 | 1017.9 | |
| 20260503222919 | 77 | 152 | 1.0 | 12.0 | 0.00 | 0.00 | 0.00 | 38 | 1017.9 |
| 20260503222417 | 77 | 171 | 3.0 | 12.0 | 0.00 | 0.00 | 0.00 | 38 | 1018.0 |
| 20260503221913 | 78 | 178 | 2.0 | 7.0 | 0.00 | 0.00 | 0.00 | 36 | 1017.9 |
| 20260503221412 | 78 | 186 | 2.0 | 7.0 | 0.00 | 0.00 | 0.00 | 36 | 1018.0 |
| 20260503220909 | 78 | 175 | 1.0 | 6.0 | 0.00 | 0.00 | 0.00 | 35 | 1018.1 |
| 20260503220407 | 78 | 184 | 1.0 | 6.0 | 0.00 | 0.00 | 0.00 | 38 | 1018.2 |
| 20260503215903 | 78 | 147 | 1.0 | 5.0 | 0.00 | 0.00 | 0.00 | 37 | 1018.2 |
| 20260503215401 | 78 | 1.0 | 7.0 | 0.00 | 0.00 | 0.00 | 39 | 1018.3 | |
| 20260503214859 | 78 | 156 | 1.0 | 7.0 | 0.00 | 0.00 | 0.00 | 38 | 1018.4 |
| 20260503214356 | 78 | 132 | 1.0 | 5.0 | 0.00 | 0.00 | 0.00 | 41 | 1018.5 |
| 20260503213853 | 78 | 163 | 1.0 | 6.0 | 0.00 | 0.00 | 0.00 | 39 | 1018.5 |
| 20260503213351 | 78 | 198 | 1.0 | 6.0 | 0.00 | 0.00 | 0.00 | 39 | 1018.8 |
| 20260503212849 | 78 | 0.0 | 6.0 | 0.00 | 0.00 | 0.00 | 38 | 1018.9 | |
| 20260503212346 | 78 | 192 | 1.0 | 8.0 | 0.00 | 0.00 | 0.00 | 37 | 1019.0 |
| 20260503211843 | 78 | 170 | 1.0 | 8.0 | 0.00 | 0.00 | 0.00 | 38 | 1019.0 |
| 20260503211341 | 78 | 179 | 1.0 | 6.0 | 0.00 | 0.00 | 0.00 | 37 | 1019.0 |
| 20260503210839 | 78 | 165 | 1.0 | 6.0 | 0.00 | 0.00 | 0.00 | 39 | 1019.0 |
| 20260503210336 | 78 | 163 | 1.0 | 6.0 | 0.00 | 0.00 | 0.00 | 35 | 1019.3 |
| 20260503205833 | 78 | 159 | 1.0 | 7.0 | 0.00 | 0.00 | 0.00 | 36 | 1019.4 |
| 20260503205331 | 79 | 188 | 2.0 | 7.0 | 0.00 | 0.00 | 0.00 | 36 | 1019.6 |
| 20260503204829 | 79 | 179 | 2.0 | 7.0 | 0.00 | 0.00 | 0.00 | 35 | 1019.5 |
| 20260503204326 | 79 | 184 | 1.0 | 9.0 | 0.00 | 0.00 | 0.00 | 40 | 1019.5 |
| 20260503203823 | 79 | 180 | 1.0 | 9.0 | 0.00 | 0.00 | 0.00 | 38 | 1019.6 |
| 20260503203321 | 79 | 181 | 1.0 | 5.0 | 0.00 | 0.00 | 0.00 | 37 | 1019.7 |
| 20260503202819 | 79 | 0.0 | 5.0 | 0.00 | 0.00 | 0.00 | 34 | 1019.6 | |
| 20260503202316 | 79 | 165 | 1.0 | 8.0 | 0.00 | 0.00 | 0.00 | 35 | 1019.9 |
| 20260503201813 | 78 | 136 | 1.0 | 11.0 | 0.00 | 0.00 | 0.00 | 37 | 1020.1 |
| 20260503201311 | 79 | 152 | 3.0 | 8.0 | 0.00 | 0.00 | 0.00 | 36 | 1020.1 |
| 20260503200808 | 79 | 152 | 2.0 | 10.0 | 0.00 | 0.00 | 0.00 | 37 | 1020.3 |
| 20260503200306 | 78 | 176 | 3.0 | 10.0 | 0.00 | 0.00 | 0.00 | 36 | 1020.3 |
| 20260503195802 | 78 | 193 | 1.0 | 7.0 | 0.00 | 0.00 | 0.00 | 37 | 1020.3 |
| 20260503195301 | 78 | 200 | 1.0 | 7.0 | 0.00 | 0.00 | 0.00 | 37 | 1020.4 |
| 20260503194756 | 78 | 0.0 | 6.0 | 0.00 | 0.00 | 0.00 | 38 | 1020.4 | |
| 20260503194255 | 78 | 152 | 1.0 | 7.0 | 0.00 | 0.00 | 0.00 | 40 | 1020.4 |
| 20260503193752 | 78 | 199 | 2.0 | 7.0 | 0.00 | 0.00 | 0.00 | 38 | 1020.5 |
| 20260503193250 | 78 | 172 | 2.0 | 7.0 | 0.00 | 0.00 | 0.00 | 39 | 1020.5 |
| 20260503192749 | 78 | 198 | 3.0 | 6.0 | 0.00 | 0.00 | 0.00 | 37 | 1020.8 |
| 20260503192240 | 78 | 145 | 1.0 | 9.0 | 0.00 | 0.00 | 0.00 | 37 | 1020.8 |
| 20260503191736 | 78 | 156 | 1.0 | 9.0 | 0.00 | 0.00 | 0.00 | 37 | 1020.7 |
| 20260503191235 | 78 | 0.0 | 6.0 | 0.00 | 0.00 | 0.00 | 39 | 1020.8 | |
| 20260503190732 | 77 | 0.0 | 6.0 | 0.00 | 0.00 | 0.00 | 36 | 1021.0 | |
| 20260503190230 | 78 | 183 | 2.0 | 7.0 | 0.00 | 0.00 | 0.00 | 36 | 1021.1 |
| 20260503185726 | 78 | 188 | 1.0 | 6.0 | 0.00 | 0.00 | 0.00 | 39 | 1021.1 |
| 20260503185225 | 78 | 188 | 2.0 | 5.0 | 0.00 | 0.00 | 0.00 | 38 | 1021.2 |
| 20260503184722 | 78 | 188 | 1.0 | 7.0 | 0.00 | 0.00 | 0.00 | 42 | 1021.3 |
| 20260503184220 | 78 | 188 | 1.0 | 10.0 | 0.00 | 0.00 | 0.00 | 41 | 1021.4 |
| 20260503183716 | 78 | 210 | 1.0 | 6.0 | 0.00 | 0.00 | 0.00 | 39 | 1021.4 |
| 20260503183215 | 78 | 200 | 1.0 | 6.0 | 0.00 | 0.00 | 0.00 | 40 | 1021.5 |
| 20260503182712 | 78 | 0.0 | 5.0 | 0.00 | 0.00 | 0.00 | 43 | 1021.6 | |
| 20260503182210 | 77 | 200 | 1.0 | 10.0 | 0.00 | 0.00 | 0.00 | 40 | 1021.7 |
| 20260503181706 | 77 | 198 | 2.0 | 10.0 | 0.00 | 0.00 | 0.00 | 40 | 1021.7 |
| 20260503181205 | 78 | 141 | 1.0 | 5.0 | 0.00 | 0.00 | 0.00 | 42 | 1021.8 |
| 20260503180702 | 77 | 0.0 | 6.0 | 0.00 | 0.00 | 0.00 | 39 | 1022.0 | |
| 20260503180200 | 77 | 174 | 1.0 | 7.0 | 0.00 | 0.00 | 0.00 | 43 | 1022.1 |
| 20260503175656 | 77 | 192 | 2.0 | 7.0 | 0.00 | 0.01 | 0.00 | 42 | 1022.2 |
| 20260503175155 | 77 | 188 | 1.0 | 8.0 | 0.00 | 0.01 | 0.00 | 41 | 1022.4 |
| 20260503174652 | 76 | 188 | 2.0 | 8.0 | 0.00 | 0.01 | 0.00 | 39 | 1022.4 |
| 20260503174150 | 76 | 208 | 2.0 | 6.0 | 0.00 | 0.01 | 0.00 | 40 | 1022.4 |
| 20260503173646 | 76 | 209 | 1.0 | 7.0 | 0.00 | 0.01 | 0.00 | 39 | 1022.5 |
| 20260503173145 | 77 | 206 | 1.0 | 7.0 | 0.00 | 0.01 | 0.00 | 40 | 1022.5 |
| 20260503172642 | 76 | 1.0 | 5.0 | 0.00 | 0.01 | 0.00 | 45 | 1022.5 | |
| 20260503172139 | 76 | 1.0 | 5.0 | 0.00 | 0.01 | 0.00 | 44 | 1022.6 | |
| 20260503171636 | 75 | 0.0 | 5.0 | 0.00 | 0.01 | 0.00 | 44 | 1022.7 | |
| 20260503171134 | 75 | 1.0 | 5.0 | 0.00 | 0.01 | 0.00 | 43 | 1022.8 | |
| 20260503170632 | 75 | 212 | 1.0 | 5.0 | 0.00 | 0.01 | 0.00 | 44 | 1022.9 |
| 20260503170129 | 75 | 206 | 1.0 | 5.0 | 0.00 | 0.01 | 0.00 | 41 | 1023.0 |
| 20260503150530 | 70 | 0.0 | 3.0 | 0.00 | 0.01 | 0.00 | 56 | 1023.4 | |
| 20260503130933 | 57 | 0.0 | 0.0 | 0.00 | 0.01 | 0.00 | 79 | 1023.0 | |
| 20260503130430 | 56 | 0.0 | 0.0 | 0.00 | 0.01 | 0.00 | 79 | 1022.9 | |
| 20260503110328 | 53 | 0.0 | 0.0 | 0.00 | 0.01 | 0.00 | 85 | 1021.7 | |
| 20260503100258 | 52 | 0.0 | 0.0 | 0.00 | 0.01 | 0.00 | 86 | 1021.5 | |
| 20260503090227 | 53 | 0.0 | 0.0 | 0.00 | 0.01 | 0.00 | 86 | 1021.5 |